Regional Weather Roundup
Issued by NWS Upton, NY

Current Version | Previous Version | Text Only | Print | Product List | Glossary Off
Versions: 1 2 3 4 5 6 7 8 9 10 11 12 13 14 15 16 17 18 19 20 21 22 23 24 25 26 27 28 29 30 31 32 33 34 35 36 37 38 39 40 41 42 43 44 45 46 47 48 49 50
341 ASUS41 KOKX 211105 RWROKX Regional Weather Roundup National Weather Service New York NY 700 AM EDT MON MAY 21 2018 Note: "FAIR" indicates few or no clouds below 12,000 feet with no significant weather and/or obstructions to visibility. NYZ071-072-176-178-NJZ106-104-211200- New York City Metro Area CITY SKY/WX TMP DP RH WIND PRES REMARKS Central Park FAIR 60 53 77 CALM 30.20R Bronx Bot Gard N/A 61 52 72 N2 30.20R Bronx Lehman C N/A 61 52 72 N3 N/A LaGuardia Arpt FAIR 63 52 67 N6 30.17R Queens College N/A 63 52 67 N7 N/A Kennedy Intl FAIR 62 54 74 N8 30.18R Breezy Point N/A 63 N/A N/A N3 N/A Brooklyn Coll N/A 63 50 63 N7 N/A Staten Island N/A 61 54 77 N5 N/A Newark/Liberty FAIR 62 55 77 N5 30.18R Teterboro FAIR 60 54 80 N5 30.17R $$ NYZ177-179-078>081-211200- Long Island New York CITY SKY/WX TMP DP RH WIND PRES REMARKS Jones Beach N/A 59 N/A N/A N6 N/A Wantagh N/A 61 52 72 N6 N/A Hempstead N/A 61 54 77 N2 30.20R Matinecock Pt N/A 63 N/A N/A NW1 N/A Farmingdale FAIR 61 51 70 N9 30.17R MacArthur/ISP FAIR 60 52 74 N7 30.16R Stony Brook N/A 59 52 77 NW3 N/A Shirley FAIR 60 52 74 N8 30.16R Mt Sinai Harb N/A N/A N/A N/A NW1 N/A Westhampton FAIR 59 51 75 N7 30.16R East Hampton FAIR 58 53 84 N6 30.14R Southold N/A 57 52 82 N6 N/A Montauk N/A 57 53 86 NW6 30.15R $$ NYZ052-065-067-211200- Hudson Valley CITY SKY/WX TMP DP RH WIND PRES REMARKS White Plains FAIR 57 52 83 NW6 30.17R Larchmont Harb N/A 57 N/A N/A W1 N/A Croton On Huds N/A 59 N/A N/A NE1 N/A Somers N/A 55 50 82 NW6 N/A Brewster N/A 54 50 87 N7 N/A Newburgh SUNNY 52 52 100 CALM 30.20R Montgomery FAIR 51 50 96 CALM 30.19R Otisville N/A 54 54 100 S3 N/A Warwick N/A 52 52 100 S1 N/A Suffern N/A 55 54 94 N1 N/A Poughkeepsie FAIR 51 49 92 CALM 30.18R Albany FAIR 54 49 83 CALM 30.20R $$ NJZ001-105-106-008-010-013-015-019>022-104-211200- New Jersey CITY SKY/WX TMP DP RH WIND PRES REMARKS Newark/Liberty FAIR 62 55 77 N5 30.18R Teterboro FAIR 60 54 80 N5 30.17R Caldwell FAIR 57 55 93 CALM 30.19R Somerville FAIR 55 55 100 CALM 30.17R Linden FAIR 59 54 82 CALM 30.17R Perth Amboy N/A 61 N/A N/A N5 N/A Sussex FAIR 51 51 100 CALM 30.20R Andover N/A 53 53 100 CALM 30.20R Trenton FAIR 61 55 81 N7 30.17R Millville FAIR 64 57 78 N7 30.17R Atlantic City FAIR 64 58 80 N6 30.17R Wrightstown FAIR 62 56 82 N6 30.15 Toms River FAIR 60 56 86 N6 30.18R Belmar FAIR 61 55 81 NW6 30.18R $$ PAZ047>061-062-071-211200- Eastern Pennsylvania CITY SKY/WX TMP DP RH WIND PRES REMARKS Philadelphia FAIR 64 55 72 N9 30.18R Allentown FAIR 58 54 86 CALM 30.20R Scranton FOG 54 54 100 CALM 30.22R VSB 1/4 $$ CTZ002-004>006-009-010-012-RIZ004-006-007-MAZ004-011-015-211200- Southern New England In CT CITY SKY/WX TMP DP RH WIND PRES REMARKS Bradley Intl FAIR 57 51 80 NW8 30.16R Hartford FAIR 57 53 86 N3 30.16R Danbury FAIR 57 51 80 NE7 30.20R Wtrbury/Oxford FAIR 55 48 77 N10 30.18R Norwalk Harbor N/A 57 N/A N/A NW6 N/A Bridgeport FAIR 60 49 66 NW8 30.15R Meriden FAIR 57 51 80 CALM 30.17R New Haven FAIR 59 50 72 N8 30.15R Chester FAIR 57 54 88 CALM 30.14R Groton FAIR 59 55 87 N10 30.14R Willimantic FOG 52 52 100 CALM 30.16R VSB 1/4 In RI CITY SKY/WX TMP DP RH WIND PRES REMARKS Providence FAIR 59 48 67 N8 30.14R Block Island FAIR 59 50 72 N9 30.14R Westerly FAIR 60 55 83 N7 30.14R In MA CITY SKY/WX TMP DP RH WIND PRES REMARKS Boston FAIR 59 47 64 NW8 30.13R Worcester FAIR 55 41 59 N9 30.15R Westfield FAIR 53 52 96 CALM 30.16R Provincetown NOT AVBL Nantucket FAIR 59 53 80 N12 30.10R $$ ANZ330-335-338-340-345-350-353-355-211200- Coastal Marine Observations STATION/POSITION TIME SKY/WX TEMP WIND PRES VSBY WAVE AIR SEA DIR/SP/G HT/PER (UTC) (F) (DEG/KT/KT) (MB) (MI) (FT/S) NY Harb Entrance 1050 58 54 350/ 4/ 6 1021.5 3/ 8 20 S Fire Island 1050 56 51 320/ 8/ 10 1021.2 4/ 8 23 SSW Montauk P 1050 54 51 320/ 8/ 8 1020.5 4/ 7 15 E Barnegat Li 1030 55 N/A 4/ 9 Hudson Canyon 1050 55 52 350/ 10/ 14 1020.0 5/ 9 Kings Point 1048 60 56 50/ 3/ 4 1022.7 Execution Rocks NOT AVBL Western LI Sound NOT AVBL Central LI Sound 1030 54 310/ 6/ 8 N/A 0 Robbins Reef 1048 61 350/ 9/ 10 1022.2 $$ >>>>>>>>>>>>>>>>>>>>>>>>>>>> KEY <<<<<<<<<<<<<<<<<<<<<<<<<<< > < > SKY/WX - Sky Condition/Present Weather < > TMP - Temperature in Fahrenheit < > DP - Dew Point in Fahrenheit < > RH - Relative Humidity in Percent < > WIND - Direction (from) and Speed in MPH < > PRES - Mean Sea Level Pressure (inches of Hg) < > WCI - Wind Chill Index < > VSB - Visibility in Miles < > HX - Heat Index < > TC - Temperature in Celsius < > VRB - Varibale Wind Direction < > < >>>>>>>>>>>>>>>>>>>>>>>>>>>> KEY <<<<<<<<<<<<<<<<<<<<<<<<<<<

USA.gov is the U.S. government's official web portal to all federal, state and local government web resources and services.